| time (UTC) | temp C | wind direction | speed KPH | gust KPH | rain 1hr cm | rain 24hr cm | rain mn cm | humidity % | barometer mb |
| 20260505140628 | 32 | 120 | 6.4 | 9.7 | 0.00 | 0.00 | 0.00 | 58 | 1017.9 |
| 20260505140125 | 32 | 58 | 4.8 | 9.7 | 0.00 | 0.00 | 0.00 | 59 | 1017.7 |
| 20260505124543 | 30 | 189 | 9.7 | 16.1 | 0.00 | 0.00 | 0.00 | 67 | 1017.8 |
| 20260505124039 | 29 | 103 | 6.4 | 12.9 | 0.00 | 0.00 | 0.00 | 69 | 1017.6 |
| 20260505123536 | 29 | 143 | 8.0 | 14.5 | 0.00 | 0.00 | 0.00 | 70 | 1017.6 |
| 20260505123032 | 28 | 145 | 9.7 | 14.5 | 0.00 | 0.00 | 0.00 | 71 | 1017.6 |
| 20260505122530 | 28 | 125 | 8.0 | 12.9 | 0.00 | 0.00 | 0.00 | 71 | 1017.7 |
| 20260505122026 | 29 | 53 | 3.2 | 9.7 | 0.00 | 0.00 | 0.00 | 72 | 1017.5 |
| 20260505121523 | 28 | 105 | 3.2 | 9.7 | 0.00 | 0.00 | 0.00 | 73 | 1017.7 |
| 20260505121019 | 28 | 208 | 3.2 | 11.3 | 0.00 | 0.00 | 0.00 | 74 | 1017.7 |
| 20260505120516 | 28 | 114 | 1.6 | 9.7 | 0.00 | 0.00 | 0.00 | 74 | 1017.5 |
| 20260505120011 | 28 | 141 | 0.0 | 9.7 | 0.00 | 0.00 | 0.00 | 74 | 1017.4 |
| 20260505115506 | 28 | 114 | 8.0 | 11.3 | 0.00 | 0.00 | 0.00 | 74 | 1017.4 |
| 20260505115004 | 28 | 132 | 3.2 | 6.4 | 0.00 | 0.00 | 0.00 | 74 | 1017.2 |
| 20260505114501 | 28 | 126 | 1.6 | 6.4 | 0.00 | 0.00 | 0.00 | 75 | 1017.3 |
| 20260505113957 | 28 | 102 | 1.6 | 6.4 | 0.00 | 0.00 | 0.00 | 76 | 1017.1 |
| 20260505113454 | 28 | 107 | 3.2 | 4.8 | 0.00 | 0.00 | 0.00 | 76 | 1017.0 |
| 20260505112949 | 27 | 114 | 6.4 | 6.4 | 0.00 | 0.00 | 0.00 | 77 | 1017.3 |
| 20260505112447 | 27 | 41 | 0.0 | 3.2 | 0.00 | 0.00 | 0.00 | 78 | 1017.2 |
| 20260505111944 | 27 | 64 | 3.2 | 4.8 | 0.00 | 0.00 | 0.00 | 78 | 1017.0 |
| 20260505111443 | 27 | 294 | 1.6 | 3.2 | 0.00 | 0.00 | 0.00 | 79 | 1017.4 |
| 20260505110940 | 27 | 157 | 1.6 | 3.2 | 0.00 | 0.00 | 0.00 | 80 | 1017.0 |
| 20260505110438 | 27 | 120 | 1.6 | 3.2 | 0.00 | 0.00 | 0.00 | 81 | 1017.2 |
| 20260505101909 | 25 | 81 | 0.0 | 0.0 | 0.00 | 0.00 | 0.00 | 87 | 1016.6 |
| 20260505101409 | 25 | 102 | 1.6 | 3.2 | 0.00 | 0.00 | 0.00 | 87 | 1016.5 |
| 20260505100905 | 25 | 120 | 0.0 | 1.6 | 0.00 | 0.00 | 0.00 | 87 | 1016.5 |
| 20260505100402 | 25 | 64 | 1.6 | 4.8 | 0.00 | 0.00 | 0.00 | 87 | 1016.3 |
| 20260505095857 | 25 | 92 | 0.0 | 3.2 | 0.00 | 0.00 | 0.00 | 87 | 1016.3 |
| 20260505095355 | 25 | 188 | 1.6 | 3.2 | 0.00 | 0.00 | 0.00 | 87 | 1016.3 |
| 20260505094851 | 25 | 112 | 1.6 | 3.2 | 0.00 | 0.00 | 0.00 | 87 | 1016.1 |
| 20260505094348 | 25 | 103 | 1.6 | 3.2 | 0.00 | 0.00 | 0.00 | 87 | 1016.3 |
| 20260505093844 | 25 | 161 | 0.0 | 1.6 | 0.00 | 0.00 | 0.00 | 87 | 1016.2 |
| 20260505093341 | 25 | 176 | 0.0 | 1.6 | 0.00 | 0.00 | 0.00 | 86 | 1016.0 |
| 20260505092838 | 25 | 114 | 0.0 | 6.4 | 0.00 | 0.00 | 0.00 | 86 | 1016.3 |
| 20260505092337 | 25 | 184 | 0.0 | 3.2 | 0.00 | 0.00 | 0.00 | 87 | 1016.4 |
| 20260505091833 | 25 | 163 | 0.0 | 1.6 | 0.00 | 0.00 | 0.00 | 87 | 1016.2 |
| 20260505091331 | 25 | 154 | 1.6 | 3.2 | 0.00 | 0.00 | 0.00 | 87 | 1016.1 |
| 20260505090829 | 25 | 142 | 1.6 | 3.2 | 0.00 | 0.00 | 0.00 | 87 | 1016.3 |
| 20260505090327 | 25 | 126 | 1.6 | 3.2 | 0.00 | 0.00 | 0.00 | 87 | 1016.1 |
| 20260505085824 | 25 | 181 | 3.2 | 3.2 | 0.00 | 0.00 | 0.00 | 87 | 1015.8 |
| 20260505085322 | 25 | 141 | 1.6 | 4.8 | 0.00 | 0.00 | 0.00 | 88 | 1016.0 |
| 20260505084819 | 24 | 244 | 0.0 | 1.6 | 0.00 | 0.00 | 0.00 | 88 | 1016.1 |
| 20260505084318 | 24 | 257 | 0.0 | 0.0 | 0.00 | 0.00 | 0.00 | 87 | 1016.1 |
| 20260505083814 | 24 | 257 | 0.0 | 0.0 | 0.00 | 0.00 | 0.00 | 87 | 1016.1 |
| 20260505083312 | 24 | 263 | 0.0 | 3.2 | 0.00 | 0.00 | 0.00 | 87 | 1016.1 |
| 20260505082808 | 24 | 263 | 1.6 | 3.2 | 0.00 | 0.00 | 0.00 | 87 | 1015.8 |
| 20260505082305 | 24 | 259 | 1.6 | 3.2 | 0.00 | 0.00 | 0.00 | 86 | 1015.8 |
| 20260505081801 | 25 | 258 | 1.6 | 3.2 | 0.00 | 0.00 | 0.00 | 86 | 1015.8 |
| 20260505081258 | 25 | 249 | 0.0 | 0.0 | 0.00 | 0.00 | 0.00 | 85 | 1016.1 |
| 20260505080755 | 25 | 264 | 0.0 | 1.6 | 0.00 | 0.00 | 0.00 | 84 | 1016.0 |
| 20260505080250 | 25 | 280 | 0.0 | 1.6 | 0.00 | 0.00 | 0.00 | 83 | 1016.1 |
| 20260505075746 | 25 | 289 | 0.0 | 0.0 | 0.00 | 0.00 | 0.00 | 83 | 1016.0 |
| 20260505075244 | 25 | 279 | 0.0 | 0.0 | 0.00 | 0.00 | 0.00 | 84 | 1016.0 |
| 20260505074741 | 25 | 271 | 0.0 | 1.6 | 0.00 | 0.00 | 0.00 | 84 | 1015.9 |
| 20260505074238 | 25 | 260 | 0.0 | 0.0 | 0.00 | 0.00 | 0.00 | 84 | 1015.6 |
| 20260505073736 | 25 | 252 | 1.6 | 1.6 | 0.00 | 0.00 | 0.00 | 84 | 1015.7 |
| 20260505073233 | 25 | 254 | 0.0 | 1.6 | 0.00 | 0.00 | 0.00 | 84 | 1015.7 |
| 20260505072730 | 25 | 253 | 0.0 | 1.6 | 0.00 | 0.00 | 0.00 | 84 | 1015.8 |
| 20260505072226 | 25 | 239 | 0.0 | 1.6 | 0.00 | 0.00 | 0.00 | 84 | 1015.7 |
| 20260505071721 | 25 | 247 | 0.0 | 0.0 | 0.00 | 0.00 | 0.00 | 84 | 1015.6 |
| 20260505071219 | 25 | 247 | 0.0 | 1.6 | 0.00 | 0.00 | 0.00 | 85 | 1015.6 |
| 20260505070716 | 25 | 254 | 1.6 | 1.6 | 0.00 | 0.00 | 0.00 | 85 | 1015.9 |
| 20260505070212 | 25 | 253 | 1.6 | 3.2 | 0.00 | 0.00 | 0.00 | 85 | 1015.7 |
| 20260505065708 | 25 | 247 | 1.6 | 1.6 | 0.00 | 0.00 | 0.00 | 85 | 1015.8 |
| 20260505065205 | 26 | 241 | 3.2 | 3.2 | 0.00 | 0.00 | 0.00 | 84 | 1016.0 |
| 20260505064702 | 26 | 84 | 0.0 | 1.6 | 0.00 | 0.00 | 0.00 | 85 | 1016.0 |
| 20260505064200 | 26 | 121 | 1.6 | 3.2 | 0.00 | 0.00 | 0.00 | 85 | 1015.9 |
| 20260505063657 | 26 | 113 | 1.6 | 3.2 | 0.00 | 0.00 | 0.00 | 84 | 1015.9 |
| 20260505063153 | 26 | 89 | 0.0 | 3.2 | 0.00 | 0.00 | 0.00 | 84 | 1016.1 |
| 20260505062649 | 26 | 87 | 0.0 | 3.2 | 0.00 | 0.00 | 0.00 | 84 | 1016.0 |
| 20260505062147 | 26 | 92 | 0.0 | 3.2 | 0.00 | 0.00 | 0.00 | 84 | 1016.0 |
| 20260505061644 | 26 | 119 | 1.6 | 3.2 | 0.00 | 0.00 | 0.00 | 84 | 1016.1 |
| 20260505061142 | 26 | 147 | 0.0 | 1.6 | 0.00 | 0.00 | 0.00 | 84 | 1016.0 |
| 20260505060639 | 26 | 118 | 1.6 | 3.2 | 0.00 | 0.00 | 0.00 | 83 | 1016.2 |
| 20260505060136 | 26 | 116 | 1.6 | 3.2 | 0.00 | 0.00 | 0.00 | 83 | 1016.1 |
| 20260505055631 | 26 | 127 | 0.0 | 1.6 | 0.00 | 0.00 | 0.00 | 83 | 1016.1 |
| 20260505055128 | 26 | 219 | 0.0 | 3.2 | 0.00 | 0.00 | 0.00 | 83 | 1016.1 |
| 20260505054626 | 26 | 112 | 3.2 | 4.8 | 0.00 | 0.00 | 0.00 | 82 | 1016.3 |
| 20260505054124 | 26 | 135 | 3.2 | 3.2 | 0.00 | 0.00 | 0.00 | 82 | 1016.3 |
| 20260505053621 | 26 | 169 | 1.6 | 3.2 | 0.00 | 0.00 | 0.00 | 82 | 1016.4 |
| 20260505053117 | 26 | 110 | 3.2 | 6.4 | 0.00 | 0.00 | 0.00 | 82 | 1016.3 |
| 20260505052614 | 26 | 155 | 1.6 | 4.8 | 0.00 | 0.00 | 0.00 | 82 | 1016.5 |
| 20260505052112 | 26 | 165 | 1.6 | 3.2 | 0.00 | 0.00 | 0.00 | 82 | 1016.5 |
| 20260505051608 | 26 | 142 | 0.0 | 1.6 | 0.00 | 0.00 | 0.00 | 81 | 1016.8 |
| 20260505051107 | 26 | 190 | 0.0 | 1.6 | 0.00 | 0.00 | 0.00 | 81 | 1016.6 |
| 20260505050604 | 26 | 192 | 1.6 | 1.6 | 0.00 | 0.00 | 0.00 | 81 | 1016.7 |
| 20260505041532 | 27 | 204 | 1.6 | 4.8 | 0.00 | 0.00 | 0.00 | 80 | 1017.1 |
| 20260505041029 | 27 | 216 | 1.6 | 4.8 | 0.00 | 0.00 | 0.00 | 80 | 1017.3 |
| 20260505040526 | 27 | 175 | 3.2 | 6.4 | 0.00 | 0.00 | 0.00 | 79 | 1017.4 |
| 20260505040024 | 27 | 177 | 6.4 | 6.4 | 0.00 | 0.00 | 0.00 | 79 | 1017.1 |
| 20260505035520 | 27 | 128 | 1.6 | 4.8 | 0.00 | 0.00 | 0.00 | 79 | 1017.2 |
| 20260505035016 | 27 | 133 | 1.6 | 3.2 | 0.00 | 0.00 | 0.00 | 79 | 1017.3 |
| 20260505034513 | 27 | 96 | 1.6 | 4.8 | 0.00 | 0.00 | 0.00 | 79 | 1017.3 |
| 20260505034010 | 27 | 109 | 1.6 | 4.8 | 0.00 | 0.00 | 0.00 | 78 | 1017.4 |
| 20260505033507 | 27 | 172 | 1.6 | 4.8 | 0.00 | 0.00 | 0.00 | 78 | 1017.5 |
| 20260505033005 | 27 | 96 | 3.2 | 4.8 | 0.00 | 0.00 | 0.00 | 78 | 1017.5 |
| 20260505032502 | 27 | 127 | 1.6 | 3.2 | 0.00 | 0.00 | 0.00 | 78 | 1017.7 |
| 20260505031958 | 27 | 68 | 1.6 | 6.4 | 0.00 | 0.00 | 0.00 | 78 | 1017.5 |
| 20260505031455 | 27 | 107 | 4.8 | 6.4 | 0.00 | 0.00 | 0.00 | 77 | 1017.5 |
| 20260505030952 | 27 | 104 | 0.0 | 1.6 | 0.00 | 0.00 | 0.00 | 77 | 1017.5 |
| 20260505030448 | 27 | 183 | 3.2 | 4.8 | 0.00 | 0.00 | 0.00 | 77 | 1017.5 |
| 20260505025944 | 27 | 160 | 3.2 | 4.8 | 0.00 | 0.00 | 0.00 | 77 | 1017.7 |
| 20260505025441 | 27 | 105 | 3.2 | 4.8 | 0.00 | 0.00 | 0.00 | 76 | 1017.4 |
| 20260505024940 | 27 | 108 | 0.0 | 3.2 | 0.00 | 0.00 | 0.00 | 76 | 1017.4 |
| 20260505024437 | 27 | 91 | 4.8 | 6.4 | 0.00 | 0.00 | 0.00 | 76 | 1017.5 |
| 20260505023934 | 27 | 166 | 1.6 | 3.2 | 0.00 | 0.00 | 0.00 | 76 | 1017.5 |
| 20260505023431 | 27 | 100 | 3.2 | 3.2 | 0.00 | 0.00 | 0.00 | 75 | 1017.4 |
| 20260505022928 | 27 | 126 | 1.6 | 3.2 | 0.00 | 0.00 | 0.00 | 75 | 1017.5 |
| 20260505022426 | 27 | 126 | 1.6 | 4.8 | 0.00 | 0.00 | 0.00 | 75 | 1017.5 |
| 20260505021922 | 27 | 146 | 1.6 | 4.8 | 0.00 | 0.00 | 0.00 | 75 | 1017.4 |
| 20260505021419 | 27 | 90 | 1.6 | 6.4 | 0.00 | 0.00 | 0.00 | 75 | 1017.2 |
| 20260505020915 | 27 | 153 | 3.2 | 4.8 | 0.00 | 0.00 | 0.00 | 74 | 1017.5 |
| 20260505020410 | 27 | 58 | 1.6 | 4.8 | 0.00 | 0.00 | 0.00 | 74 | 1017.1 |
| 20260505015908 | 27 | 125 | 1.6 | 4.8 | 0.00 | 0.00 | 0.00 | 74 | 1017.3 |
| 20260505015405 | 27 | 127 | 3.2 | 4.8 | 0.00 | 0.00 | 0.00 | 74 | 1017.1 |
| 20260505014902 | 27 | 112 | 3.2 | 3.2 | 0.00 | 0.00 | 0.00 | 74 | 1017.2 |
| 20260505014359 | 27 | 123 | 1.6 | 4.8 | 0.00 | 0.00 | 0.00 | 74 | 1017.2 |
| 20260505013855 | 27 | 121 | 1.6 | 4.8 | 0.00 | 0.00 | 0.00 | 73 | 1017.2 |
| 20260505013352 | 28 | 158 | 1.6 | 9.7 | 0.00 | 0.00 | 0.00 | 73 | 1017.1 |
| 20260505012851 | 28 | 102 | 3.2 | 4.8 | 0.00 | 0.00 | 0.00 | 73 | 1016.9 |
| 20260505012349 | 28 | 133 | 3.2 | 6.4 | 0.00 | 0.00 | 0.00 | 73 | 1017.1 |
| 20260505011844 | 28 | 126 | 1.6 | 4.8 | 0.00 | 0.00 | 0.00 | 73 | 1016.9 |
| 20260505011341 | 28 | 107 | 0.0 | 3.2 | 0.00 | 0.00 | 0.00 | 73 | 1017.0 |
| 20260505010837 | 28 | 52 | 3.2 | 4.8 | 0.00 | 0.00 | 0.00 | 73 | 1016.7 |
| 20260505010333 | 28 | 85 | 3.2 | 6.4 | 0.00 | 0.00 | 0.00 | 72 | 1016.7 |
| 20260505005830 | 28 | 103 | 3.2 | 9.7 | 0.00 | 0.00 | 0.00 | 72 | 1016.7 |
| 20260505005327 | 28 | 159 | 6.4 | 9.7 | 0.00 | 0.00 | 0.00 | 71 | 1016.6 |
| 20260505004824 | 28 | 87 | 1.6 | 4.8 | 0.00 | 0.00 | 0.00 | 71 | 1016.4 |
| 20260505004320 | 28 | 132 | 1.6 | 4.8 | 0.00 | 0.00 | 0.00 | 71 | 1016.5 |
| 20260505003818 | 28 | 147 | 1.6 | 6.4 | 0.00 | 0.00 | 0.00 | 71 | 1016.6 |
| 20260505003315 | 28 | 152 | 3.2 | 6.4 | 0.00 | 0.00 | 0.00 | 71 | 1016.4 |
| 20260505002811 | 28 | 118 | 6.4 | 9.7 | 0.00 | 0.00 | 0.00 | 71 | 1016.4 |
| 20260505002308 | 28 | 144 | 3.2 | 11.3 | 0.00 | 0.00 | 0.00 | 71 | 1016.5 |
| 20260505001806 | 28 | 86 | 3.2 | 6.4 | 0.00 | 0.00 | 0.00 | 70 | 1016.2 |
| 20260505001303 | 28 | 125 | 1.6 | 9.7 | 0.00 | 0.00 | 0.00 | 70 | 1016.6 |
| 20260505000800 | 28 | 150 | 4.8 | 11.3 | 0.00 | 0.00 | 0.00 | 69 | 1016.2 |
| 20260505000258 | 28 | 86 | 4.8 | 4.8 | 0.00 | 0.00 | 0.00 | 69 | 1016.2 |
| 20260504235754 | 28 | 165 | 3.2 | 9.7 | 0.00 | 0.00 | 0.00 | 70 | 1016.3 |
| 20260504235250 | 28 | 143 | 1.6 | 9.7 | 0.00 | 0.00 | 0.00 | 69 | 1016.3 |
| 20260504234748 | 28 | 192 | 3.2 | 9.7 | 0.00 | 0.00 | 0.00 | 69 | 1016.2 |
| 20260504234245 | 28 | 88 | 6.4 | 9.7 | 0.00 | 0.00 | 0.00 | 69 | 1016.1 |
| 20260504233741 | 28 | 67 | 4.8 | 9.7 | 0.00 | 0.00 | 0.00 | 69 | 1016.1 |
| 20260504233237 | 28 | 96 | 3.2 | 9.7 | 0.00 | 0.00 | 0.00 | 68 | 1016.4 |
| 20260504232735 | 28 | 83 | 6.4 | 12.9 | 0.00 | 0.00 | 0.00 | 68 | 1016.2 |
| 20260504232231 | 28 | 121 | 6.4 | 11.3 | 0.00 | 0.00 | 0.00 | 68 | 1016.4 |
| 20260504231728 | 29 | 110 | 6.4 | 6.4 | 0.00 | 0.00 | 0.00 | 68 | 1016.1 |
| 20260504231225 | 29 | 177 | 4.8 | 6.4 | 0.00 | 0.00 | 0.00 | 68 | 1015.8 |
| 20260504230721 | 29 | 84 | 6.4 | 11.3 | 0.00 | 0.00 | 0.00 | 67 | 1015.8 |
| 20260504230220 | 29 | 129 | 6.4 | 12.9 | 0.00 | 0.00 | 0.00 | 67 | 1015.8 |
| 20260504225718 | 29 | 133 | 3.2 | 6.4 | 0.00 | 0.00 | 0.00 | 67 | 1015.6 |
| 20260504225214 | 29 | 87 | 6.4 | 16.1 | 0.00 | 0.00 | 0.00 | 67 | 1015.7 |
| 20260504224711 | 29 | 81 | 4.8 | 9.7 | 0.00 | 0.00 | 0.00 | 67 | 1015.7 |
| 20260504224209 | 29 | 127 | 8.0 | 14.5 | 0.00 | 0.00 | 0.00 | 66 | 1015.5 |
| 20260504223704 | 29 | 123 | 6.4 | 12.9 | 0.00 | 0.00 | 0.00 | 65 | 1015.5 |
| 20260504223200 | 30 | 123 | 6.4 | 11.3 | 0.00 | 0.00 | 0.00 | 64 | 1015.4 |
| 20260504222658 | 30 | 91 | 4.8 | 9.7 | 0.00 | 0.00 | 0.00 | 65 | 1015.3 |
| 20260504222154 | 30 | 127 | 3.2 | 11.3 | 0.00 | 0.00 | 0.00 | 66 | 1015.4 |
| 20260504221651 | 30 | 51 | 4.8 | 11.3 | 0.00 | 0.00 | 0.00 | 66 | 1015.2 |
| 20260504221149 | 30 | 77 | 8.0 | 12.9 | 0.00 | 0.00 | 0.00 | 65 | 1015.1 |
| 20260504220645 | 30 | 89 | 4.8 | 6.4 | 0.00 | 0.00 | 0.00 | 64 | 1015.1 |
| 20260504220143 | 30 | 109 | 3.2 | 12.9 | 0.00 | 0.00 | 0.00 | 63 | 1015.0 |
| 20260504215638 | 31 | 101 | 4.8 | 14.5 | 0.00 | 0.00 | 0.00 | 63 | 1014.8 |
| 20260504215136 | 30 | 101 | 6.4 | 16.1 | 0.00 | 0.00 | 0.00 | 63 | 1014.9 |
| 20260504214632 | 31 | 82 | 8.0 | 12.9 | 0.00 | 0.00 | 0.00 | 63 | 1014.5 |
| 20260504214128 | 31 | 89 | 8.0 | 14.5 | 0.00 | 0.00 | 0.00 | 61 | 1014.7 |
| 20260504213625 | 31 | 46 | 9.7 | 12.9 | 0.00 | 0.00 | 0.00 | 60 | 1014.6 |
| 20260504213122 | 31 | 77 | 8.0 | 11.3 | 0.00 | 0.00 | 0.00 | 60 | 1014.6 |
| 20260504212618 | 31 | 70 | 4.8 | 9.7 | 0.00 | 0.00 | 0.00 | 59 | 1014.7 |
| 20260504212115 | 31 | 211 | 6.4 | 11.3 | 0.00 | 0.00 | 0.00 | 59 | 1014.3 |
| 20260504211612 | 31 | 153 | 6.4 | 12.9 | 0.00 | 0.00 | 0.00 | 58 | 1014.3 |
| 20260504211109 | 31 | 118 | 6.4 | 17.7 | 0.00 | 0.00 | 0.00 | 58 | 1014.4 |
| 20260504210607 | 31 | 64 | 4.8 | 12.9 | 0.00 | 0.00 | 0.00 | 59 | 1014.4 |
| 20260504205601 | 32 | 161 | 9.7 | 12.9 | 0.00 | 0.00 | 0.00 | 57 | 1014.3 |
| 20260504205058 | 31 | 85 | 6.4 | 16.1 | 0.00 | 0.00 | 0.00 | 60 | 1014.3 |
| 20260504204556 | 32 | 67 | 4.8 | 17.7 | 0.00 | 0.00 | 0.00 | 60 | 1014.3 |
| 20260504204055 | 32 | 126 | 9.7 | 20.9 | 0.00 | 0.00 | 0.00 | 58 | 1014.1 |
| 20260504203553 | 32 | 128 | 8.0 | 16.1 | 0.00 | 0.00 | 0.00 | 58 | 1014.4 |
| 20260504203050 | 32 | 210 | 6.4 | 9.7 | 0.00 | 0.00 | 0.00 | 57 | 1014.0 |
| 20260504202545 | 32 | 155 | 11.3 | 16.1 | 0.00 | 0.00 | 0.00 | 57 | 1014.0 |
| 20260504202042 | 32 | 103 | 9.7 | 16.1 | 0.00 | 0.00 | 0.00 | 56 | 1014.0 |
| 20260504201539 | 32 | 123 | 9.7 | 20.9 | 0.00 | 0.00 | 0.00 | 56 | 1013.9 |
| 20260504201037 | 32 | 86 | 8.0 | 17.7 | 0.00 | 0.00 | 0.00 | 56 | 1014.1 |
| 20260504200533 | 32 | 126 | 3.2 | 9.7 | 0.00 | 0.00 | 0.00 | 56 | 1014.0 |
| 20260504200030 | 32 | 75 | 4.8 | 14.5 | 0.00 | 0.00 | 0.00 | 57 | 1014.2 |
| 20260504195526 | 32 | 118 | 9.7 | 16.1 | 0.00 | 0.00 | 0.00 | 54 | 1014.4 |
| 20260504195023 | 32 | 138 | 11.3 | 17.7 | 0.00 | 0.00 | 0.00 | 53 | 1014.4 |
| 20260504194519 | 32 | 52 | 4.8 | 14.5 | 0.00 | 0.00 | 0.00 | 54 | 1014.3 |
| 20260504194015 | 33 | 158 | 6.4 | 16.1 | 0.00 | 0.00 | 0.00 | 54 | 1014.3 |
| 20260504193512 | 32 | 73 | 3.2 | 11.3 | 0.00 | 0.00 | 0.00 | 53 | 1014.4 |
| 20260504193011 | 32 | 117 | 8.0 | 24.1 | 0.00 | 0.00 | 0.00 | 55 | 1014.2 |
| 20260504192508 | 32 | 116 | 9.7 | 16.1 | 0.00 | 0.00 | 0.00 | 55 | 1014.4 |
| 20260504192007 | 33 | 114 | 12.9 | 20.9 | 0.00 | 0.00 | 0.00 | 53 | 1014.3 |
| 20260504191504 | 33 | 120 | 8.0 | 12.9 | 0.00 | 0.00 | 0.00 | 51 | 1014.3 |
| 20260504190959 | 33 | 105 | 9.7 | 17.7 | 0.00 | 0.00 | 0.00 | 49 | 1014.3 |
| 20260504190455 | 33 | 88 | 8.0 | 17.7 | 0.00 | 0.00 | 0.00 | 50 | 1014.3 |
| 20260504185952 | 33 | 150 | 14.5 | 17.7 | 0.00 | 0.00 | 0.00 | 51 | 1014.5 |
| 20260504185449 | 33 | 199 | 14.5 | 17.7 | 0.00 | 0.00 | 0.00 | 50 | 1014.6 |
| 20260504184945 | 33 | 185 | 9.7 | 17.7 | 0.00 | 0.00 | 0.00 | 50 | 1014.8 |
| 20260504184441 | 33 | 67 | 6.4 | 24.1 | 0.00 | 0.00 | 0.00 | 52 | 1014.9 |
| 20260504183937 | 33 | 52 | 9.7 | 14.5 | 0.00 | 0.00 | 0.00 | 50 | 1014.8 |
| 20260504183434 | 33 | 179 | 9.7 | 16.1 | 0.00 | 0.00 | 0.00 | 51 | 1014.9 |
| 20260504182932 | 34 | 111 | 6.4 | 14.5 | 0.00 | 0.00 | 0.00 | 50 | 1014.6 |
| 20260504182429 | 33 | 125 | 4.8 | 6.4 | 0.00 | 0.00 | 0.00 | 50 | 1014.8 |
| 20260504181926 | 33 | 238 | 3.2 | 11.3 | 0.00 | 0.00 | 0.00 | 50 | 1014.7 |
| 20260504181423 | 33 | 165 | 6.4 | 17.7 | 0.00 | 0.00 | 0.00 | 49 | 1015.0 |
| 20260504180922 | 33 | 111 | 11.3 | 20.9 | 0.00 | 0.00 | 0.00 | 49 | 1015.0 |
| 20260504180420 | 33 | 163 | 4.8 | 11.3 | 0.00 | 0.00 | 0.00 | 48 | 1015.0 |
| 20260504175918 | 33 | 91 | 6.4 | 22.5 | 0.00 | 0.00 | 0.00 | 46 | 1014.9 |
| 20260504175415 | 33 | 177 | 9.7 | 14.5 | 0.00 | 0.00 | 0.00 | 50 | 1015.1 |
| 20260504174913 | 33 | 160 | 9.7 | 14.5 | 0.00 | 0.00 | 0.00 | 47 | 1015.3 |
| 20260504174410 | 33 | 119 | 6.4 | 12.9 | 0.00 | 0.00 | 0.00 | 46 | 1015.2 |
| 20260504173907 | 33 | 186 | 9.7 | 20.9 | 0.00 | 0.00 | 0.00 | 46 | 1015.4 |
| 20260504173403 | 33 | 93 | 8.0 | 17.7 | 0.00 | 0.00 | 0.00 | 45 | 1015.2 |
| 20260504172901 | 33 | 132 | 9.7 | 22.5 | 0.00 | 0.00 | 0.00 | 48 | 1015.3 |
| 20260504172357 | 33 | 93 | 3.2 | 11.3 | 0.00 | 0.00 | 0.00 | 47 | 1015.5 |
| 20260504171853 | 33 | 57 | 12.9 | 20.9 | 0.00 | 0.00 | 0.00 | 46 | 1015.5 |
| 20260504171350 | 33 | 100 | 12.9 | 16.1 | 0.00 | 0.00 | 0.00 | 45 | 1015.6 |
| 20260504170848 | 33 | 122 | 8.0 | 16.1 | 0.00 | 0.00 | 0.00 | 45 | 1015.6 |
| 20260504170344 | 33 | 141 | 8.0 | 20.9 | 0.00 | 0.00 | 0.00 | 45 | 1015.8 |
| 20260504160303 | 32 | 78 | 14.5 | 17.7 | 0.00 | 0.00 | 0.00 | 47 | 1016.4 |
| 20260504150728 | 32 | 153 | 6.4 | 12.9 | 0.00 | 0.00 | 0.00 | 52 | 1016.7 |
| 20260504150225 | 32 | 116 | 11.3 | 16.1 | 0.00 | 0.00 | 0.00 | 53 | 1017.0 |